Weather History for KBML - June, 2013

Change the Weather History Date:

Friday, June 14, 2013

  Actual Average Record
Temperature  
Mean Temperature 62 °F -  
Max Temperature 75 °F 70 °F 89 °F (2001)
Min Temperature 48 °F 43 °F 39 °F (1997)
Degree Days  
Heating Degree Days 4    
Growing Degree Days 12 (Base 50)    
Moisture  
Dew Point 48 °F    
Average Humidity 75    
Maximum Humidity 100    
Minimum Humidity 34    
Precipitation  
Precipitation 0.00 in - - ()
Sea Level Pressure  
Sea Level Pressure 29.74 in    
Wind  
Wind Speed 1 mph (NNW)    
Max Wind Speed 10 mph    
Max Gust Speed 26 mph    
Visibility 8 miles    
Events Fog , Thunderstorm    
Averages and records for this station are not official NWS values.
T = Trace of Precipitation, MM = Missing Value Source: NWS Daily Summary

Daily Weather History Graph

Daily Weather History Graph

Search for Another Location

Airport or City:

Trip Planner

Search our weather history database for the weather conditions in past years. The results will help you decide how hot, cold, wet, or windy it might be!

Date:

Astronomy

Jun. 14, 2013 Rise Set
Actual Time 4:59 AM EDT 8:31 PM EDT
Civil Twilight 4:22 AM EDT 9:08 PM EDT
Nautical Twilight 3:33 AM EDT 9:56 PM EDT
Astronomical Twilight 2:30 AM EDT 11:00 PM EDT
Moon 10:42 AM EDT (6/14) 11:52 PM EDT (6/14)
Length of Visible Light 16h 45m
Length of Day
15h 32m
Waxing Crescent, 30% of the Moon is Illuminated
Jun 14
Waxing Crescent
Jun 16
First Quarter
Jun 23
Full
Jun 30
Last Quarter
Jul 8
New

Hourly Weather History & Observations

Time (EDT) Temp. Dew Point Humidity Pressure Visibility Wind Dir Wind Speed Gust Speed Precip Events Conditions
12:52 AM 52.0 °F 50.0 °F 93% 29.73 in 10.0 mi Calm Calm - N/A   Clear
1:52 AM 51.1 °F 48.9 °F 92% 29.72 in 10.0 mi Calm Calm - N/A   Clear
2:52 AM 50.0 °F 48.0 °F 93% 29.71 in 10.0 mi Calm Calm - N/A   Clear
3:52 AM 48.9 °F 46.9 °F 93% 29.72 in 10.0 mi Calm Calm - N/A   Clear
4:13 AM 50.0 °F 48.2 °F 94% 29.72 in 10.0 mi Calm Calm - N/A   Partly Cloudy
4:52 AM 48.9 °F 46.9 °F 93% 29.73 in 10.0 mi Calm Calm - N/A   Scattered Clouds
5:01 AM 48.2 °F 46.4 °F 93% 29.73 in 10.0 mi Calm Calm - N/A   Mostly Cloudy
5:52 AM 48.9 °F 48.0 °F 97% 29.74 in 10.0 mi Calm Calm - N/A   Overcast
6:15 AM 50.0 °F 48.2 °F 94% 29.73 in 1.5 mi Calm Calm - N/A   Overcast
6:17 AM 50.0 °F 48.2 °F 94% 29.73 in 0.8 mi Calm Calm - N/A   Overcast
6:26 AM 50.0 °F 48.2 °F 94% 29.73 in 0.2 mi Calm Calm - N/A Fog Fog
6:52 AM 50.0 °F 50.0 °F 100% 29.74 in 0.8 mi Calm Calm - N/A   Mist
7:02 AM 51.8 °F 50.0 °F 94% 29.73 in 1.2 mi Calm Calm - N/A   Overcast
7:07 AM 51.8 °F 50.0 °F 94% 29.73 in 2.0 mi Calm Calm - N/A   Overcast
7:15 AM 51.8 °F 50.0 °F 94% 29.73 in 8.0 mi Calm Calm - N/A   Overcast
7:39 AM 51.8 °F 50.0 °F 94% 29.74 in 1.8 mi Calm Calm - N/A   Overcast
7:46 AM 51.8 °F 51.8 °F 100% 29.74 in 3.0 mi Calm Calm - N/A   Overcast
7:47 AM 51.1 °F 51.1 °F 100% 29.75 in 3.0 mi Calm Calm - N/A   Overcast
8:26 AM 53.6 °F 51.8 °F 94% 29.74 in 10.0 mi Calm Calm - N/A   Scattered Clouds
8:52 AM 57.0 °F 51.1 °F 81% 29.75 in 10.0 mi Calm Calm - N/A   Clear
9:52 AM 63.0 °F 52.0 °F 67% 29.74 in 10.0 mi Calm Calm - N/A   Clear
10:52 AM 68.0 °F 46.0 °F 45% 29.74 in 10.0 mi North 8.1 mph - N/A   Clear
11:52 AM 72.0 °F 44.1 °F 37% 29.73 in 10.0 mi North 10.4 mph - N/A   Clear
12:52 PM 72.0 °F 43.0 °F 35% 29.72 in 10.0 mi NNW 8.1 mph - N/A   Mostly Cloudy
1:52 PM 73.9 °F 44.1 °F 34% 29.71 in 10.0 mi NNW 8.1 mph - N/A   Mostly Cloudy
2:52 PM 73.0 °F 45.0 °F 37% 29.71 in 10.0 mi NNW 9.2 mph - N/A   Mostly Cloudy
3:52 PM 75.0 °F 45.0 °F 34% 29.70 in 10.0 mi Variable 4.6 mph - N/A   Partly Cloudy
4:52 PM 73.0 °F 46.0 °F 38% 29.71 in 10.0 mi NNW 9.2 mph 17.3 mph N/A   Mostly Cloudy
5:52 PM 73.0 °F 46.9 °F 39% 29.72 in 10.0 mi Variable 3.5 mph - N/A   Mostly Cloudy
6:52 PM 73.0 °F 46.9 °F 39% 29.72 in 10.0 mi NW 6.9 mph - N/A   Partly Cloudy
7:52 PM 69.1 °F 48.0 °F 47% 29.76 in 10.0 mi Variable 6.9 mph 26.5 mph N/A   Mostly Cloudy
8:30 PM 66.2 °F 51.8 °F 60% 29.76 in 10.0 mi Calm Calm - 0.00 in Thunderstorm Mostly Cloudy
8:45 PM 66.2 °F 51.8 °F 60% 29.76 in 10.0 mi North 4.6 mph - 0.00 in   Mostly Cloudy
8:52 PM 64.0 °F 52.0 °F 65% 29.77 in 10.0 mi NNE 3.5 mph - 0.00 in   Mostly Cloudy
9:52 PM 54.0 °F 51.1 °F 90% 29.80 in 10.0 mi Calm Calm - N/A   Scattered Clouds
10:52 PM 51.1 °F 48.9 °F 92% 29.79 in 10.0 mi Calm Calm - N/A   Clear
11:52 PM 48.0 °F 46.0 °F 93% 29.81 in 9.0 mi Variable 3.5 mph - N/A   Clear